This is the latest recevied weather packets stored in our database for station/object SP4MAZ-13. If no packets are shown the sender has not sent any weather packets the latest 10 day(s).
| Time | Temp. | Humidity | Pressure | Rain* | Wind** | Luminosity | Snow |
|---|---|---|---|---|---|---|---|
| 1777720709 | 21.67° C | 27% | 2147.4 hPa | - | - | - | - |
| 1777720406 | 21.11° C | 25% | 2147.4 hPa | - | - | - | - |
| 1777720102 | 21.67° C | 24% | 2147.4 hPa | - | - | - | - |
| 1777719799 | 21.67° C | 26% | 2147.4 hPa | - | - | - | - |
| 1777719496 | 21.67° C | 20% | 2147.4 hPa | - | - | - | - |
| 1777719192 | 21.67° C | 20% | 2147.4 hPa | - | - | - | - |
| 1777718891 | 21.67° C | 23% | 2147.4 hPa | - | - | - | - |
| 1777718587 | 21.67° C | 26% | 2147.4 hPa | - | - | - | - |
| 1777718284 | 21.67° C | 22% | 2147.4 hPa | - | - | - | - |
| 1777717981 | 21.67° C | 26% | 2147.4 hPa | - | - | - | - |
| 1777717677 | 21.67° C | 28% | 2147.4 hPa | - | - | - | - |
| 1777717373 | 21.67° C | 26% | 2147.4 hPa | - | - | - | - |
| 1777717070 | 21.67° C | 26% | 2147.4 hPa | - | - | - | - |
| 1777716766 | 21.11° C | 29% | 2147.4 hPa | - | - | - | - |
| 1777716463 | 22.22° C | 29% | 2147.4 hPa | - | - | - | - |
| 1777716162 | 21.67° C | 27% | 2147.4 hPa | - | - | - | - |
| 1777715859 | 22.22° C | 27% | 2147.4 hPa | - | - | - | - |
| 1777715555 | 22.78° C | 28% | 2147.4 hPa | - | - | - | - |
| 1777715251 | 22.22° C | 26% | 2147.4 hPa | - | - | - | - |
| 1777714949 | 22.22° C | 31% | 2147.4 hPa | - | - | - | - |
| 1777714645 | 21.67° C | 27% | 2147.4 hPa | - | - | - | - |
| 1777714343 | 21.67° C | 29% | 2147.4 hPa | - | - | - | - |
| 1777714042 | 21.67° C | 27% | 2147.4 hPa | - | - | - | - |
| 1777713739 | 21.11° C | 29% | 2147.4 hPa | - | - | - | - |
| 1777713435 | 21.11° C | 29% | 2147.4 hPa | - | - | - | - |
* Rain since midnight (hover to see other rain measurements)
** Current wind speed in m/s (hover to see current wind gust speed)